www.pogodaiklimat.ru

АРХИВ ПОГОДЫ в Нью-Йорке Сити

Время (UTC), дата Ветер
(напр.,м/с)
 
Видим.   Явления Облачность Т
(С)
Тd
(С)
f
(%)
Тe
(С)
Тes
(С)
Комфортность

P
(гПа)

Po
(гПа)
Тmin
(С)
Tmax
(С)
R
(мм)
SD
(см)
22:51 24.05 нст  16 км    ясно  +23.3  +6.7  34  +24  +25  комфорт  1018.0  1013.2         
23:51 24.05 нст  16 км    ясно  +23.3  +7.8  37  +24  +24  комфорт  1018.2  1013.5         
00:51 25.05 нст  16 км    ясно  +21.7  +6.1  36  +22  +22  комфорт  1018.7  1013.9         
01:51 25.05     16 км    ясно  +21.1  +7.8  42  +22  +22  комфорт  1018.8  1013.9         
02:51 25.05 З  16 км    ясно  +21.0  +8.0  43  +22  +22  комфорт  1018.7  1013.9         
03:51 25.05 З  16 км    ясно  +21.0  +9.0  46  +23  +23  комфорт  1018.6  1013.9         
04:51 25.05 нст  16 км    ясно  +20.6  +8.9  47  +22  +22  комфорт  1018.3  1013.5         
05:51 25.05 З  16 км    ясно  +19.4  +9.4  52  +21  +21  комфорт  1017.8  1013.2         
06:51 25.05 нст  16 км    ясно  +19.4  +10.6  57  +21  +21  комфорт  1017.6  1012.8         
07:51 25.05 нст  16 км    ясно  +18.9  +10.6  59  +20  +20    1017.3  1012.5         
08:51 25.05 З  16 км    ясно  +18.9  +10.6  59  +20  +20    1017.6  1012.8         
09:51 25.05 нст  16 км    ясно  +18.9  +11.1  61  +20  +21    1017.6  1012.8         
10:51 25.05 ЮЗ  16 км    ясно  +20.0  +11.1  57  +22  +24  комфорт  1017.2  1012.5         
11:51 25.05     16 км    ясно  +22.2  +11.1  49  +24  +30  комфорт  1016.8  1012.2         
12:51 25.05 нст  16 км    ясно  +23.9  +12.2  48  +26  +32  жарко  1016.3  1011.5         
13:51 25.05     16 км    ясно  +26.1  +12.2  42  +28  +44  жарко  1015.4  1010.5         
14:51 25.05 нст  3
{8} 
14 км    ясно  +28.3  +10.6  33  +29  +42  жарко  1014.7  1010.1         
15:51 25.05 нст  1
{7} 
16 км    ясно  +29.4  +8.9  28  +29  +49  жарко  1013.7  1009.1         
16:51 25.05 Ю  16 км    ясно  +29.4  +9.4  29  +29  +47  жарко  1012.9  1008.1         
17:51 25.05     16 км    ясно  +29.4  +10.6  31  +30  +55  опасность
солнечного
удара 
1012.4  1007.8         
18:51 25.05     14 км    ясно  +29.4  +10.6  31  +30  +51  опасность
солнечного
удара 
1011.6  1006.8         
19:51 25.05 нст  16 км    ясно  +28.9  +14.4  41  +31  +41  жарко  1010.8  1006.1         
20:51 25.05 нст  16 км    ясно  +29.4  +12.2  35  +30  +36  жарко  1010.2  1005.4         
21:51 25.05     16 км    ясно  +28.9  +12.2  36  +30  +35  жарко  1009.9  1005.1         
22:51 25.05 нст  16 км    ясно  +28.3  +13.3  40  +30  +31  жарко  1010.1  1005.4         
23:51 25.05     16 км    ясно  +26.7  +15.6  51  +30  +30  душно  1010.1  1005.4         
00:51 26.05 нст  16 км    ясно  +26.1  +15.0  50  +29  +29  жарко  1010.5  1005.8         
01:51 26.05 З  4
{8} 
16 км    ясно  +26.0  +15.0  51  +29  +29  душно  1010.5  1005.8         
02:51 26.05     16 км    ясно  +25.6  +16.1  56  +29  +29  душно  1010.4  1005.8         
03:51 26.05 нст  16 км    ясно  +24.0  +17.0  65  +28  +28  душно  1010.4  1005.8         
04:51 26.05 нст  16 км    ясно  +23.9  +17.8  69  +28  +28  душно  1010.1  1005.4         
05:51 26.05 нст  16 км    ясно  +23.3  +17.8  71  +29  +29  душно  1009.9  1005.1         
06:51 26.05 нст  3
{8} 
16 км    ясно  +22.8  +17.8  73  +28  +28  душно  1009.7  1005.1         
07:51 26.05     16 км    ясно  +22.8  +17.8  73  +28  +28  душно  1009.6  1004.8         
08:51 26.05 нст  14 км    ясно  +22.8  +17.8  73  +28  +28  душно  1009.7  1005.1         
09:51 26.05     14 км    ясно  +22.8  +18.3  76  +28  +29  душно  1009.8  1005.1         
10:51 26.05 нст  14 км    ясно  +22.8  +18.3  76  +28  +30  душно  1009.9  1005.1         
11:51 26.05 штиль  14 км    ясно  +24.4  +18.9  71  +29  +35  душно  1010.1  1005.4         
12:51 26.05 штиль  14 км    ясно  +27.2  +19.4  62  +33  +44  очень
душно 
1009.9  1005.1         
13:51 26.05 нст  14 км    ясно  +28.3  +19.4  59  +34  +45  очень
душно 
1009.8  1005.1         
14:51 26.05 штиль  16 км    5/5 1800 м  +29.4  +19.4  55  +35  +46  очень
душно 
1009.3  1004.8         
15:51 26.05 штиль  14 км    ясно  +31.1  +20.6  54  +38  +64  опасность
солнечного
удара 
1008.9  1004.1         
16:51 26.05 штиль  16 км    8/8 1800 м  +31.7  +17.8  44  +36  +41  очень
душно 
1008.6  1003.8         
17:51 26.05 нст  16 км    5/5 1950 м
[средняя] 
+31.0  +17.0  43  +35  +45  очень
душно 
1008.5  1003.8         
18:51 26.05 З  16 км    2/2 1950 м  +30.6  +17.8  46  +35  +46  очень
душно 
1008.1  1003.4         
19:51 26.05 нст  16 км    ясно  +29.4  +20.0  57  +36  +48  очень
душно 
1008.2  1003.4         
20:51 26.05 штиль  16 км    ясно  +30.6  +18.9  50  +36  +46  очень
душно 
1008.2  1003.4         
21:51 26.05 штиль  14 км    5/0 2100 м
[средняя] 
+28.9  +19.4  57  +35  +38  очень
душно 
1008.9  1004.1         

 

Местоположение метеостанции Central Park: широта 40.7833 долгота -73.9667 высота над уровнем моря 47 м.

В архиве по умолчанию представлена погода в Нью-Йорке Сити за последние 1-2 суток. Обновление информации о фактической погоде в базе происходит ежечасно! Архивные данные за месяц целиком и за предыдущие месяцы Вы можете получить, выбрав интересующий диапазон дат из раскрывающегося списка и нажав кнопку "Ввод!".

Внимание! Архив погоды МЕТАР в базе сайта в настоящее время начинается c 1 января 2013 г. Нет смысла пытаться выбрать более раннюю дату.

Внимание! Время в таблицах - всемирное. Для получения местного времени необходимо прибавить поправку, которая в Нью-Йорке Сити равна -5 ч.

Ветер - указаны скорость ветра в м/с и направление, откуда дует ветер: С - северный, СВ - северо-восточный, В - восточный, ЮВ - юго-восточный, Ю - южный, ЮЗ - юго-западный, З - западный, СЗ - северо-западный.
Видимость - горизонтальная дальность видимости в метрах или километрах. При видимости от 1 до 10 км при отсутствии осадков обычно наблюдается дымка, при ухудшении видимости до 1 км и менее - туман. В сухую погоду видимость может ухудшаться дымом, пылью или мглою.
Атмосферные явления - указаны явления, наблюдавшиеся в указанный момент времени.
Облачность - указаны через наклонную черту верхняя и нижняя облачность в баллах и высота нижней границы облаков в метрах. Внимание: облачность, как и прочие метеорологические величины в США измеряются автоматическими метеостанциями. Указанные значения в баллах носят условный характер и показывают процент времени, в течение которого, в среднем, лазерный луч высотомера отражался от облаков обратно.
T - Температура воздуха - температура, измеренная на высоте 2 м над землей.
Td - Температура точки росы - температура, при понижении до которой содержащийся в воздухе водяной пар достигнет насыщения.
f - Относительная влажность воздуха - влажноcть воздуха, измеренная на высоте 2 м над землей.
Te - Эффективная температура - температура, которую ощущает одетый по сезону человек в тени. Характеристика душности погоды. При расчете учитывается влияние влажности воздуха и скорости ветра на теплоощущения человека.
Tes - Эффективная температура на солнце - температура, которую ощущает человек, с поправкой на солнечный нагрев. Характеристика знойности погоды. Зависит от высоты солнца над горизонтом, облачности и скорости ветра. Ночью, в пасмурную погоду, а также при ветре 12 м/с и более поправка равна нулю.
P - Атмосферное давление - приведенное к уровню моря атмосферное давление.
Po - Атмосферное давление - измеренное на уровне метеостанции атмосферное давление.
Tmin - Минимальная температура - минимум температуры воздуха на высоте 2 м над землей.
Tmax - Максимальная температура - максимум температуры воздуха на высоте 2 м над землей.
R - Количество осадков - Количество выпавших осадков за 3 или 6 часов, мм.
SD - Снежный покров - Высота снежного покрова, см.